Regional Weather Roundup
Issued by NWS

Home | Current Version | Previous Version | Graphics & Text | Print | Product List | Glossary On
Versions: 1 2 3 4 5 6 7 8 9 10 11 12 13 14 15 16 17 18 19 20 21 22 23 24 25 26 27 28 29 30 31 32 33 34 35 36 37 38 39 40 41 42 43 44 45 46 47 48 49 50
000
ASUS43 KMPX 191401
RWRMN
WEATHER ROUNDUP FOR MINNESOTA
NATIONAL WEATHER SERVICE TWIN CITIES/CHANHASSEN MN
800 AM CST SUN NOV 19 2017


NOTE: "FAIR" INDICATES FEW OR NO CLOUDS BELOW 12,000 FEET WITH NO
SIGNIFICANT WEATHER AND/OR OBSTRUCTIONS TO VISIBILITY. N/A MEANS
CURRENT SKY AND/OR WEATHER CONDITIONS ARE NOT AVAILABLE.

MNZ060>063-068>070-191500-
   Twin Cities Metro

CITY           SKY/WX    TMP DP  RH WIND       PRES   REMARKS
TWIN CITIES    PTCLDY    18  13  80 W6        30.08F WCI  10
ST PAUL        CLEAR     19  12  74 SW5       30.09S WCI  12
CRYSTAL        CLEAR     18  10  71 SW6       30.06S WCI  10
BLAINE         PTCLDY    18  12  79 SW5       30.06S WCI  11
LAKEVILLE      CLEAR     16  12  86 CALM      30.08S
EDEN PRAIRIE   CLEAR     17  11  77 SW5       30.07S WCI  10
SOUTH ST PAUL  CLEAR     19  13  77 W3        30.08F
LAKE ELMO      FAIR      19  12  73 W5        30.07F WCI  13
$$
MNZ001>005-007-008-013>017-022>024-027-028-191500-
   Northwest Minnesota

CITY           SKY/WX    TMP DP  RH WIND       PRES   REMARKS
BEMIDJI        CLOUDY    12   8  83 S3        29.91S
HALLOCK        CLOUDY    14  10  85 SE3       29.92R
ROSEAU         CLOUDY    16  10  79 SW3       29.91S
WARROAD        CLOUDY    12   9  85 SW5       29.91S WCI   4
CROOKSTON      CLOUDY    18  12  79 S6        29.94F WCI   9
FOSSTON        CLOUDY    12  10  92 S8        29.93R WCI   1
DETROIT LAKES  PTCLDY    19  14  79 S6        29.95S WCI  11
MOORHEAD       CLOUDY    16  12  86 CALM      29.96F
PARK RAPIDS    MOCLDY    13   8  81 S3        29.93F
MAHNOMEN       FAIR      13  10  87 S6        29.94S WCI   4
$$
MNZ006-009>011-018-025>026-191500-
   North Central Minnesota

CITY           SKY/WX    TMP DP  RH WIND       PRES   REMARKS
BAUDETTE       CLOUDY     9   5  84 SW5       29.89F WCI   1
FLAG ISLAND    CLOUDY     9   3  78 W5        29.88F WCI   0
INTL FALLS     CLOUDY     7   2  80 W6        29.91R WCI  -3
WASKISH        CLOUDY    16   9  73 W8        29.91S WCI   5
BIG FORK       PTCLDY     9   3  78 CALM      29.91F
LONGVILLE      CLOUDY    12  10  92 W5        29.95S WCI   4
GRAND RAPIDS   PTCLDY    13   8  81 SW3       29.95F
CRANE LAKE     CLEAR      0  -2  92 CALM      29.94S
ORR            CLOUDY     1  -2  85 CALM      29.89R
COOK           PTCLDY     3   1  92 CALM      29.91F
WALKER         FAIR      13   8  82 SW3       29.93F
$$
MNZ012-019>021-037-191500-
   Northeast Minnesota

CITY           SKY/WX    TMP DP  RH WIND       PRES   REMARKS
DULUTH         PTCLDY     8   5  87 W10       29.94R WCI  -6
ELY            FLURRIES   5   3  92 W6        29.90S WCI  -6
HIBBING        PTCLDY     6   4  91 CALM      29.93R
EVELETH        CLEAR      5   1  85 CALM      29.94R
DULUTH HARBOR  PTCLDY    16  10  79 SW7       30.01F WCI   6
TWO HARBORS    CLEAR     10   7  85 SW5       29.94S WCI   2
SILVER BAY     CLEAR      9   7  92 SW3       29.92R
GRAND MARAIS     N/A     17  10  74 VRB3      29.91S
G MARAIS ARPRT CLEAR      9   3  78 CALM      29.81S
$$
MNZ029>031-032-039>041-046>048-054>057-064-191500-
   West Central Minnesota

CITY           SKY/WX    TMP DP  RH WIND       PRES   REMARKS
FERGUS FALLS   CLOUDY    16  10  79 SE6       30.01F WCI   7
WHEATON        CLOUDY    19  16  86 S3        29.99F
MORRIS         CLOUDY    19  16  86 S7        29.99F WCI  10
ALEXANDRIA     CLOUDY    18  13  80 SW8       29.98F WCI   8
ELBOW LAKE     FAIR      16  13  90 S7        29.99S FOG     WCI   6
WADENA         CLOUDY    14  10  85 SW5       29.96S WCI   6
GLENWOOD       CLOUDY    14  12  92 SW3       29.99S
APPLETON         N/A     21  18  86 S3        30.02S
BENSON         PTCLDY    18  14  86 S5        30.02F WCI  11
ORTONVILLE     PTCLDY    23  16  74 MISG      29.99F
MADISON        CLOUDY    28  21  74 W5        30.01F WCI  23
WILLMAR        FAIR      19  16  86 CALM      30.04S
$$
MNZ033>034-036-042>043-049>051-058-059-191500-
   Central Minnesota

CITY           SKY/WX    TMP DP  RH WIND       PRES   REMARKS
ST CLOUD       CLEAR     15  12  88 S3        30.03S
SAUK CENTRE    FAIR      15  12  86 S6        30.01S WCI   7
PAYNESVILLE    CLOUDY    17  15  90 CALM      30.03S
AITKIN         CLOUDY    12   9  85 CALM      29.97R
PINE RIVER     PTCLDY    12   9  85 CALM      29.99S
BRAINERD       CLOUDY    15  10  80 SW6       29.98F WCI   6
STAPLES        CLOUDY    14  10  85 SW5       29.97S WCI   6
LONG PRAIRIE   FAIR      14  12  92 S3        30.00S
LITTLE FALLS   CLOUDY    16  10  79 S3        30.01F
LITCHFIELD     CLOUDY    18  16  93 CALM      30.04S
BUFFALO        CLEAR     17  13  82 S3        30.06S
MAPLE LAKE     CLEAR     18  15  87 CALM      30.05S
HUTCHINSON     CLOUDY    18  14  86 SW5       30.06S WCI  11
$$
MNZ037-044-045-052-053-191500-
   East Central Minnesota

CITY           SKY/WX    TMP DP  RH WIND       PRES   REMARKS
PRINCETON      CLEAR     16  12  86 CALM      30.04S
MORA           PTCLDY    14  10  85 W3        30.04S
CAMBRIDGE      PTCLDY    18   9  68 CALM      30.05S
RUSH CITY      PTCLDY    17  11  80 W5        30.04F WCI  10
MOOSE LAKE     PTCLDY    12   9  85 CALM      29.98S
HINCKLEY       FAIR      18  12  79 SW7       30.02S WCI   8
CLOQUET        PTCLDY    12   7  79 W6        29.95F WCI   3
MCGREGOR       CLOUDY    14  10  85 SW5       29.98S WCI   6
$$
MNZ071>073-080-081-089-090-097-098-191500-
   Southwest Minnesota

CITY           SKY/WX    TMP DP  RH WIND       PRES   REMARKS
MONTEVIDEO     CLOUDY    21  18  86 SW5       30.03S WCI  15
GRANITE FALLS  CLOUDY    22  18  83 S8        30.05S HAZE    WCI  13
CANBY          PTCLDY    30  19  64 SW14G23   30.02F WCI  19
MARSHALL       CLOUDY    28  19  69 SW18      30.04F WCI  15
REDWOOD FALLS  CLEAR     20  14  77 SW5       30.05F WCI  13
OLIVIA         CLOUDY    19  16  86 S5        30.04S WCI  13
PIPESTONE      CLOUDY    19  16  86 SW6       30.05F WCI  11
WINDOM           N/A     21   9  58 SW7       30.07S WCI  13
WORTHINGTON    CLOUDY    23  17  78 SW15      30.07F WCI  10
JACKSON        CLOUDY    23  18  80 CALM      30.08S
SLAYTON        PTCLDY    26  17  70 W10       30.06S WCI  15
$$
MNZ065>067-074>077-082>085-091>093-191500-
   South Central Minnesota

CITY           SKY/WX    TMP DP  RH WIND       PRES   REMARKS
MANKATO        CLEAR     17  12  80 S6        30.09S WCI   9
NEW ULM        CLOUDY    16  12  86 CALM      30.07F
ST JAMES       CLEAR     19  16  86 S6        30.09F WCI  11
FAIRMONT       CLEAR     20  15  81 SW5       30.10S WCI  13
GLENCOE        CLEAR     17  14  87 S5        30.06F WCI  10
FARIBAULT      CLEAR     18  12  79 SW5       30.09S WCI  11
OWATONNA       CLEAR     18  12  79 SW5       30.08S WCI  11
WASECA         CLEAR     18  14  86 SW3       30.10S
ALBERT LEA     CLEAR     18  10  73 CALM      30.09S
$$
MNZ078>079-086>088-094>096-191500-
   Southeast Minnesota

CITY           SKY/WX    TMP DP  RH WIND       PRES   REMARKS
ROCHESTER      CLEAR     17  12  80 W12       30.08R WCI   4
RED WING       CLEAR     19  10  68 W6        30.08R WCI  11
STANTON        CLEAR     18  13  81 SW5       30.07F WCI  11
DODGE CENTER   CLEAR     16  10  79 W7        30.07R WCI   6
WINONA           N/A     21  14  73 W6G16     30.10R WCI  14
AUSTIN         CLEAR     18  10  73 W7        30.09R WCI   8
PRESTON        CLEAR     17  11  77 W10       30.07R WCI   4
$$
ABBREVIATIONS USED IN REMARKS
   TC - TEMPERATURES IN CELSIUS
  WCI - WIND CHILL INDEX
   HX - HEAT INDEX
  VSB - VISIBILITY
$$



USA.gov is the U.S. government's official web portal to all federal, state and local government web resources and services.